SCP
-0 -0 0 0 0 0 0 0 0 0 0 0 0 0 0 0 0 0 0 0 0 0 0 0 0 0 0 0 0 0 0 0
-0 -0 0 0 0 0 0 0 0 0 0 0 0 0 0 0 0 0 0 0 0 0 0 0 0 0 0 0 0 0 0 0
-0 0 0 0 0 0 0 0 0 0 0 0 0 0 0 0 0 0 0 0 0 0 0 0 0 0 0 0 0 0 0 0
-0 0 0 0 -0 0 0 0 0 0 0 0 0 0 0 0 0 0 0 0 0 0 0 0 0 0 0 0 0 0 0 0
0 0 0 -0 -0 0 0 0 0 0 0 0 0 0 0 0 0 0 0 0 0 0 0 0 0 0 0 0 0 0 0 0
0 0 0 0 0 0 -0 -0 0 0 0 0 0 0 0 0 0 0 0 0 0 0 0 0 0 0 0 0 0 0 0 0
0 0 0 0 0 -0 0 0 0 0 0 0 0 0 0 0 0 0 0 0 0 0 0 0 0 0 0 0 0 0 0 0
0 0 0 0 0 0 0 0 0 -0 0 0 0 0 0 0 0 0 0 0 0 0 0 0 0 0 0 0 0 0 0 0
0 0 0 0 0 0 0 0 0 0 0 0 0 0 0 0 0 0 0 0 0 0 0 0 0 0 0 0 0 0 0 0
0 0 0 0 0 0 0 0 0 0 0 0 0 0 0 0 0 0 0 0 0 0 0 0 0 0 0 0 0 0 0 0
0 0 0 0 0 0 0 0 0 0 0 0 0 0 0 0 0 0 0 0 0 0 0 0 0 0 0 0 0 0 0 0
-0 -0 -0 -0 -0 0 0 0 0 0 0 0 0 0 0 0 0 0 0 0 0 0 0 0 0 0 0 0 0 0 0 0
-0 -0 -0 -0 -0 -0 0 0 0 0 0 0 0 0 0 0 0 0 0 0 0 0 0 0 0 0 0 0 0 0 0 0
-0 -0 -0 -0 -0 -0 -0 -0 0 0 0 0 0 0 0 0 0 0 0 0 0 0 0 0 0 0 0 0 0 0 0 0
-0 -0 -0 -0 -0 -0 -0 0 0 0 0 0 0 0 0 0 0 0 0 0 0 0 0 0 0 0 0 0 0 0 0 0
-0 -0 -0 -0 -0 -0 0 0 0 0 0 0 0 0 0 0 0 0 0 0 0 0 0 0 0 0 0 0 0 0 0 0
-0 -0 -0 -0 -0 -0 -0 -0 0 0 0 0 0 0 0 0 0 0 0 0 0 0 0 0 0 0 0 0 0 0 0 0
-0 -0 -0 -0 -0 -0 -0 -0 -0 0 0 0 0 0 0 0 0 0 0 0 0 0 0 0 0 0 0 0 0 0 0 0
-0 -0 -0 -0 0 -0 -0 -0 0 0 0 0 0 0 0 0 0 0 0 0 0 0 0 0 0 0 0 0 0 0 0 0
0 0 0 0 0 0 0 0 0 0 0 0 0 0 0 0 0 0 0 0 0 0 0 0 0 0 0 0 0 0 0 0
Wind_Speed_500mb
71 46 38 27 24 35 45 55 56 64 75 87 95 98 99 101 98 94 90 88 86 84 81 83 82 83 82 77 72 68 63 59
59 33 23 20 24 25 35 45 52 60 80 92 98 100 98 103 101 97 94 91 89 88 86 84 85 87 87 82 77 74 70 64
67 59 35 41 54 52 53 64 71 75 84 93 93 98 102 104 105 104 103 99 91 90 89 87 88 90 91 87 84 81 76 67
57 64 70 64 63 56 66 64 72 87 84 89 93 95 100 106 112 114 111 108 101 97 94 93 93 95 94 89 87 83 76 68
40 39 44 46 45 51 55 57 68 73 80 93 95 91 97 102 110 114 109 111 110 106 101 99 97 95 93 93 90 84 78 72
72 71 66 62 64 62 61 62 60 67 77 98 96 94 96 99 103 106 105 109 108 105 103 100 99 98 98 96 92 87 81 73
76 78 81 83 82 79 73 69 62 67 71 70 79 91 89 90 96 99 102 106 104 105 104 106 108 103 97 95 93 88 82 75
80 81 83 84 78 78 75 73 68 63 68 69 74 81 89 87 91 95 100 101 101 100 103 108 108 102 99 96 94 89 82 76
74 77 82 80 86 85 76 74 72 66 60 61 65 69 79 86 87 87 90 97 96 97 101 105 107 101 97 98 93 90 83 74
75 77 77 80 82 89 94 84 75 71 63 60 58 59 67 78 77 80 82 90 93 94 100 106 105 100 99 99 94 93 86 78
74 82 78 84 87 87 88 92 76 68 63 62 59 55 58 64 67 70 73 83 85 91 97 99 97 93 94 100 93 90 86 75
76 83 83 79 81 89 91 90 83 68 64 63 60 58 52 52 54 59 66 72 79 84 90 91 91 86 91 97 97 91 84 75
76 85 87 88 84 86 89 90 92 74 66 55 57 57 53 51 49 51 57 65 73 78 81 84 85 82 89 82 92 83 80 74
80 88 102 98 89 90 94 96 97 90 76 64 57 54 57 56 58 48 56 64 72 80 84 85 80 78 80 72 70 74 71 66
95 104 112 103 102 99 99 89 83 78 81 68 60 62 62 67 67 61 59 69 75 84 86 85 83 84 92 87 69 57 63 62
103 110 116 106 110 103 99 95 92 88 86 75 61 65 69 70 74 81 74 75 80 82 83 89 91 95 100 101 91 81 66 64
106 115 122 117 116 106 95 88 88 90 90 75 74 68 73 74 77 81 84 80 80 77 80 81 81 83 94 98 94 86 84 75
99 107 116 118 117 109 95 86 83 84 83 76 64 80 77 78 78 82 80 77 70 70 74 72 70 75 84 90 80 88 82 71
110 113 107 109 111 99 87 79 78 79 76 71 67 77 82 78 74 72 80 78 71 54 54 52 54 62 77 77 73 67 71 63
99 102 97 97 100 88 82 80 82 84 84 73 58 69 79 75 72 64 64 68 63 60 56 58 55 72 83 76 84 84 68 63
Wind_Direction_500mb
337 331 310 286 279 273 267 266 265 258 248 243 242 241 243 244 242 242 242 241 241 239 237 237 238 238 236 236 236 237 240 244
322 312 314 304 283 272 272 266 263 278 263 252 249 247 245 244 244 243 243 242 241 240 237 235 235 237 235 235 235 237 239 242
307 294 286 296 298 296 293 283 272 271 263 259 254 250 248 247 246 243 243 243 241 240 237 235 236 237 236 234 233 235 237 239
296 298 301 300 298 289 301 295 286 276 272 264 257 254 251 248 248 245 244 244 241 239 236 235 235 234 233 234 235 235 237 239
349 331 327 334 329 316 309 306 300 287 278 273 263 262 259 252 252 249 248 246 242 240 238 236 234 233 231 232 232 233 234 237
351 346 346 340 338 333 329 327 311 296 288 277 269 263 260 256 254 253 251 249 245 240 237 236 234 231 229 230 231 232 233 234
344 340 345 347 344 340 336 332 320 303 290 287 278 270 264 259 256 255 252 248 244 239 236 235 232 230 229 231 230 230 231 232
338 336 335 336 340 336 333 333 333 327 307 288 281 274 269 265 258 254 252 248 243 238 235 233 232 230 228 228 228 228 229 230
327 326 324 323 326 326 328 330 334 334 329 310 291 283 276 268 260 254 251 247 245 241 235 232 231 228 227 228 227 227 225 227
329 326 323 325 326 320 318 322 327 330 330 329 319 298 282 270 262 255 249 246 242 239 234 230 227 224 225 227 225 224 224 224
323 317 321 324 322 320 319 315 317 321 326 326 325 311 293 278 267 257 251 247 243 236 232 230 228 223 226 227 225 222 221 220
323 319 321 320 319 316 314 313 312 309 306 316 323 315 297 285 270 260 248 243 239 235 231 229 227 222 226 228 230 224 221 219
319 321 320 318 317 314 309 310 307 304 301 298 296 304 301 286 276 256 248 242 237 233 229 226 223 218 222 221 233 227 223 220
318 313 315 316 314 307 305 305 303 301 297 295 293 284 281 277 274 259 250 243 238 233 227 223 223 217 214 207 219 224 221 219
314 312 311 310 307 305 305 304 300 294 296 294 290 282 274 267 264 260 249 239 236 235 232 225 225 213 210 204 200 215 215 213
309 308 305 305 304 303 301 299 297 294 282 285 284 283 275 267 263 260 254 247 243 240 236 231 227 218 212 213 204 204 212 222
304 306 305 303 301 300 299 298 297 292 286 281 278 277 277 269 263 260 255 251 248 248 249 246 241 227 214 211 212 209 215 214
300 300 302 300 298 299 300 301 297 292 288 285 275 269 268 270 263 257 250 250 249 246 249 247 243 232 218 205 190 206 212 207
301 301 300 298 296 300 304 302 297 293 290 281 270 266 264 264 266 257 251 240 235 221 220 218 227 230 191 185 185 183 203 204
304 302 303 301 300 307 307 303 299 295 289 283 273 261 260 263 259 253 245 239 236 221 209 203 193 190 184 182 189 198 203 196
Wind_Speed_850mb
71 46 38 27 24 35 45 55 56 64 75 87 95 98 99 101 98 94 90 88 86 84 81 83 82 83 82 77 72 68 63 59
59 33 23 20 24 25 35 45 52 60 80 92 98 100 98 103 101 97 94 91 89 88 86 84 85 87 87 82 77 74 70 64
67 59 35 41 54 52 53 64 71 75 84 93 93 98 102 104 105 104 103 99 91 90 89 87 88 90 91 87 84 81 76 67
57 64 70 64 63 56 66 64 72 87 84 89 93 95 100 106 112 114 111 108 101 97 94 93 93 95 94 89 87 83 76 68
40 39 44 46 45 51 55 57 68 73 80 93 95 91 97 102 110 114 109 111 110 106 101 99 97 95 93 93 90 84 78 72
72 71 66 62 64 62 61 62 60 67 77 98 96 94 96 99 103 106 105 109 108 105 103 100 99 98 98 96 92 87 81 73
76 78 81 83 82 79 73 69 62 67 71 70 79 91 89 90 96 99 102 106 104 105 104 106 108 103 97 95 93 88 82 75
80 81 83 84 78 78 75 73 68 63 68 69 74 81 89 87 91 95 100 101 101 100 103 108 108 102 99 96 94 89 82 76
74 77 82 80 86 85 76 74 72 66 60 61 65 69 79 86 87 87 90 97 96 97 101 105 107 101 97 98 93 90 83 74
75 77 77 80 82 89 94 84 75 71 63 60 58 59 67 78 77 80 82 90 93 94 100 106 105 100 99 99 94 93 86 78
74 82 78 84 87 87 88 92 76 68 63 62 59 55 58 64 67 70 73 83 85 91 97 99 97 93 94 100 93 90 86 75
76 83 83 79 81 89 91 90 83 68 64 63 60 58 52 52 54 59 66 72 79 84 90 91 91 86 91 97 97 91 84 75
76 85 87 88 84 86 89 90 92 74 66 55 57 57 53 51 49 51 57 65 73 78 81 84 85 82 89 82 92 83 80 74
80 88 102 98 89 90 94 96 97 90 76 64 57 54 57 56 58 48 56 64 72 80 84 85 80 78 80 72 70 74 71 66
95 104 112 103 102 99 99 89 83 78 81 68 60 62 62 67 67 61 59 69 75 84 86 85 83 84 92 87 69 57 63 62
103 110 116 106 110 103 99 95 92 88 86 75 61 65 69 70 74 81 74 75 80 82 83 89 91 95 100 101 91 81 66 64
106 115 122 117 116 106 95 88 88 90 90 75 74 68 73 74 77 81 84 80 80 77 80 81 81 83 94 98 94 86 84 75
99 107 116 118 117 109 95 86 83 84 83 76 64 80 77 78 78 82 80 77 70 70 74 72 70 75 84 90 80 88 82 71
110 113 107 109 111 99 87 79 78 79 76 71 67 77 82 78 74 72 80 78 71 54 54 52 54 62 77 77 73 67 71 63
99 102 97 97 100 88 82 80 82 84 84 73 58 69 79 75 72 64 64 68 63 60 56 58 55 72 83 76 84 84 68 63
Wind_Direction_850mb
337 331 310 286 279 273 267 266 265 258 248 243 242 241 243 244 242 242 242 241 241 239 237 237 238 238 236 236 236 237 240 244
322 312 314 304 283 272 272 266 263 278 263 252 249 247 245 244 244 243 243 242 241 240 237 235 235 237 235 235 235 237 239 242
307 294 286 296 298 296 293 283 272 271 263 259 254 250 248 247 246 243 243 243 241 240 237 235 236 237 236 234 233 235 237 239
296 298 301 300 298 289 301 295 286 276 272 264 257 254 251 248 248 245 244 244 241 239 236 235 235 234 233 234 235 235 237 239
349 331 327 334 329 316 309 306 300 287 278 273 263 262 259 252 252 249 248 246 242 240 238 236 234 233 231 232 232 233 234 237
351 346 346 340 338 333 329 327 311 296 288 277 269 263 260 256 254 253 251 249 245 240 237 236 234 231 229 230 231 232 233 234
344 340 345 347 344 340 336 332 320 303 290 287 278 270 264 259 256 255 252 248 244 239 236 235 232 230 229 231 230 230 231 232
338 336 335 336 340 336 333 333 333 327 307 288 281 274 269 265 258 254 252 248 243 238 235 233 232 230 228 228 228 228 229 230
327 326 324 323 326 326 328 330 334 334 329 310 291 283 276 268 260 254 251 247 245 241 235 232 231 228 227 228 227 227 225 227
329 326 323 325 326 320 318 322 327 330 330 329 319 298 282 270 262 255 249 246 242 239 234 230 227 224 225 227 225 224 224 224
323 317 321 324 322 320 319 315 317 321 326 326 325 311 293 278 267 257 251 247 243 236 232 230 228 223 226 227 225 222 221 220
323 319 321 320 319 316 314 313 312 309 306 316 323 315 297 285 270 260 248 243 239 235 231 229 227 222 226 228 230 224 221 219
319 321 320 318 317 314 309 310 307 304 301 298 296 304 301 286 276 256 248 242 237 233 229 226 223 218 222 221 233 227 223 220
318 313 315 316 314 307 305 305 303 301 297 295 293 284 281 277 274 259 250 243 238 233 227 223 223 217 214 207 219 224 221 219
314 312 311 310 307 305 305 304 300 294 296 294 290 282 274 267 264 260 249 239 236 235 232 225 225 213 210 204 200 215 215 213
309 308 305 305 304 303 301 299 297 294 282 285 284 283 275 267 263 260 254 247 243 240 236 231 227 218 212 213 204 204 212 222
304 306 305 303 301 300 299 298 297 292 286 281 278 277 277 269 263 260 255 251 248 248 249 246 241 227 214 211 212 209 215 214
300 300 302 300 298 299 300 301 297 292 288 285 275 269 268 270 263 257 250 250 249 246 249 247 243 232 218 205 190 206 212 207
301 301 300 298 296 300 304 302 297 293 290 281 270 266 264 264 266 257 251 240 235 221 220 218 227 230 191 185 185 183 203 204
304 302 303 301 300 307 307 303 299 295 289 283 273 261 260 263 259 253 245 239 236 221 209 203 193 190 184 182 189 198 203 196